Date Time,Air Temp,Sky Temp,Clarity,Light Level,Rain Sensor,Readings
2012-10-07 00:00:37,21.5,-12.5,34.0,0.0,2.2,111
2012-10-07 00:05:37,21.4,-12.6,34.0,0.0,2.2,111
2012-10-07 00:10:37,21.4,-12.6,34.0,0.0,2.1,112
2012-10-07 00:15:37,21.4,-12.5,33.9,0.0,2.1,111
2012-10-07 00:20:37,21.4,-12.5,33.9,0.0,2.1,112
2012-10-07 00:25:37,21.3,-12.7,34.0,0.0,2.0,111
2012-10-07 00:30:37,21.2,-12.7,34.0,0.0,1.9,112
2012-10-07 00:35:37,21.1,-12.7,33.8,0.0,1.9,111
2012-10-07 00:40:37,21.1,-12.8,33.9,0.0,2.0,111
2012-10-07 00:45:37,21.0,-12.6,33.6,0.0,2.0,111
2012-10-07 00:50:37,20.9,-12.6,33.6,0.0,2.0,111
2012-10-07 00:55:37,20.9,-12.5,33.4,0.0,2.0,112
2012-10-07 01:00:54,20.9,-12.5,33.4,0.0,2.1,111
2012-10-07 01:05:54,20.9,-12.5,33.4,0.0,2.1,111
2012-10-07 01:10:54,21.0,-12.4,33.4,0.0,2.1,112
2012-10-07 01:15:54,21.0,-12.4,33.4,0.0,2.0,111
2012-10-07 01:20:54,21.1,-12.4,33.5,0.0,1.9,112
2012-10-07 01:25:54,21.1,-12.5,33.6,0.0,1.9,112
2012-10-07 01:30:54,21.2,-12.4,33.6,0.0,1.9,111
2012-10-07 01:35:54,21.1,-12.3,33.4,0.0,1.9,111
2012-10-07 01:40:54,21.0,-12.2,33.3,0.0,1.9,111
2012-10-07 01:45:54,21.0,-12.2,33.2,0.0,2.0,112
2012-10-07 01:50:54,20.9,-12.4,33.3,0.0,2.2,111
2012-10-07 01:55:54,20.9,-12.5,33.5,0.0,2.1,111
2012-10-07 02:00:54,21.0,-12.5,33.5,0.0,2.0,112
2012-10-07 02:05:54,21.0,-12.5,33.5,0.0,1.9,111
2012-10-07 02:10:54,21.1,-12.4,33.5,0.0,1.9,111
2012-10-07 02:15:54,21.2,-12.5,33.6,0.0,1.9,112
2012-10-07 02:20:54,21.1,-12.6,33.7,0.0,1.9,111
2012-10-07 02:25:54,21.0,-12.6,33.7,0.0,2.0,111
2012-10-07 02:30:54,21.0,-12.5,33.5,0.0,2.2,112
2012-10-07 02:35:54,20.9,-12.5,33.4,0.0,2.3,111
2012-10-07 02:40:54,20.9,-12.4,33.3,0.0,2.3,111
2012-10-07 02:45:54,20.8,-12.6,33.4,0.0,2.3,112
2012-10-07 02:50:54,20.8,-12.7,33.5,0.0,2.3,111
2012-10-07 02:55:54,20.8,-12.7,33.4,0.0,2.3,111
2012-10-07 03:00:54,20.8,-12.4,33.3,0.0,2.3,111
2012-10-07 03:05:54,20.9,-12.5,33.4,0.0,2.3,112
2012-10-07 03:10:54,20.9,-12.5,33.3,0.0,2.3,111
2012-10-07 03:15:54,20.8,-12.5,33.4,0.0,2.3,112
2012-10-07 03:20:54,20.9,-12.5,33.4,0.0,2.3,111
2012-10-07 03:25:54,20.9,-12.4,33.3,0.0,2.3,111
2012-10-07 03:30:54,21.2,-12.4,33.6,0.0,2.3,112
2012-10-07 03:35:54,20.9,-12.5,33.4,0.1,2.3,111
2012-10-07 03:40:54,20.8,-12.5,33.3,0.1,2.3,112
2012-10-07 03:45:54,20.8,-12.5,33.3,0.1,2.3,111
2012-10-07 03:50:54,20.8,-12.4,33.2,0.1,2.3,111
2012-10-07 03:55:54,20.8,-12.4,33.2,0.1,2.3,111
2012-10-07 04:00:54,20.8,-12.4,33.3,0.1,2.3,112
2012-10-07 04:05:54,20.8,-12.6,33.3,0.1,2.3,111
2012-10-07 04:10:54,20.8,-12.5,33.2,0.1,2.3,112
2012-10-07 04:15:54,20.8,-12.4,33.2,0.1,2.3,111
2012-10-07 04:20:54,20.8,-12.4,33.2,0.1,2.3,111
2012-10-07 04:25:54,20.8,-12.4,33.2,0.1,2.3,112
2012-10-07 04:30:54,20.8,-12.4,33.2,0.1,2.3,111
2012-10-07 04:35:54,20.8,-12.3,33.1,0.1,2.3,112
2012-10-07 04:40:55,20.7,-12.3,33.0,0.1,2.3,111
2012-10-07 04:45:55,20.7,-12.3,33.0,0.1,2.3,112
2012-10-07 04:50:55,20.7,-12.3,33.0,0.1,2.3,111
2012-10-07 04:55:55,20.7,-12.4,33.0,0.1,2.3,111
2012-10-07 05:00:55,20.7,-12.0,32.8,0.2,2.3,112
2012-10-07 05:05:55,20.8,-12.0,32.8,0.2,2.3,111
2012-10-07 05:10:55,20.8,-12.2,33.0,0.2,2.3,111
2012-10-07 05:15:55,20.8,-12.1,33.0,0.2,2.3,111
2012-10-07 05:20:55,20.9,-12.2,33.0,0.2,2.3,111
2012-10-07 05:25:55,21.0,-12.1,33.1,0.2,2.3,111
2012-10-07 05:30:55,21.0,-11.8,32.8,0.2,2.3,112
2012-10-07 05:35:55,20.6,-11.8,32.4,0.2,2.3,111
2012-10-07 05:40:55,20.9,-11.9,32.8,0.2,2.3,111
2012-10-07 05:45:55,20.9,-12.0,32.9,0.2,2.3,111
2012-10-07 05:50:55,20.8,-11.8,32.6,0.2,2.3,111
2012-10-07 05:55:55,20.8,-11.8,32.6,0.2,2.3,111
2012-10-07 06:00:55,20.8,-12.0,32.8,0.2,2.3,111
2012-10-07 06:05:55,20.7,-12.1,32.8,0.2,2.3,111
2012-10-07 06:10:55,20.6,-12.2,32.8,0.3,2.3,111
2012-10-07 06:15:55,20.6,-12.4,33.0,0.3,2.3,112
2012-10-07 06:20:55,20.6,-12.5,33.0,0.4,2.3,111
2012-10-07 06:25:55,20.5,-12.2,32.7,0.6,2.3,111
2012-10-07 06:30:55,20.4,-12.1,32.5,1.1,2.3,111
2012-10-07 06:35:55,20.3,-12.2,32.5,1.9,2.3,112
2012-10-07 06:40:55,20.3,-12.3,32.6,3.5,2.3,111
2012-10-07 06:45:55,20.3,-12.5,32.8,6.8,2.3,111
2012-10-07 06:50:55,20.2,-12.7,32.9,12.0,2.3,112
2012-10-07 06:55:55,20.2,-12.6,32.7,18.2,2.3,111
2012-10-07 07:00:55,20.2,-12.3,32.6,23.7,2.3,111
2012-10-07 07:05:55,20.3,-12.2,32.5,27.4,2.3,112
2012-10-07 07:10:55,20.3,-12.6,32.9,29.5,2.3,111
2012-10-07 07:15:55,20.2,-12.6,32.8,30.4,2.3,112
2012-10-07 07:20:55,20.2,-12.5,32.6,30.9,2.3,111
2012-10-07 07:25:55,20.2,-12.4,32.6,31.3,2.3,112
2012-10-07 07:30:55,20.2,-12.3,32.5,31.5,2.3,111
2012-10-07 07:35:55,20.3,-12.4,32.6,31.7,2.3,112
2012-10-07 07:40:55,20.3,-12.3,32.6,31.9,2.3,112
2012-10-07 07:45:55,20.5,-12.3,32.7,32.0,2.3,111
2012-10-07 07:50:55,20.5,-12.3,32.8,32.1,2.3,112
2012-10-07 07:55:55,20.1,-12.2,32.4,32.1,2.3,111
2012-10-07 08:00:55,20.6,-12.1,32.7,32.1,2.3,111
2012-10-07 08:05:55,20.8,-12.1,32.9,32.2,2.3,111
2012-10-07 08:10:55,20.9,-12.1,32.9,32.2,2.3,111
2012-10-07 08:15:55,20.9,-11.3,32.2,32.3,2.3,111
2012-10-07 08:20:55,21.2,-10.2,31.4,32.3,2.3,112
2012-10-07 08:25:55,21.5,-10.1,31.6,32.3,1.9,112
2012-10-07 08:30:55,21.7,-10.3,32.1,32.3,2.0,112
2012-10-07 08:35:55,21.9,-10.2,32.2,32.3,2.2,112
2012-10-07 08:40:55,22.1,-10.3,32.4,32.3,2.3,112
2012-10-07 08:45:55,22.3,-9.8,32.1,32.3,2.3,112
2012-10-07 08:50:55,22.5,-9.6,32.2,32.3,2.4,112
2012-10-07 08:55:55,22.7,-9.6,32.3,32.4,2.6,111
2012-10-07 09:00:55,23.0,-9.5,32.4,32.4,2.4,112
2012-10-07 09:05:55,23.1,-10.1,33.2,32.4,2.3,112
2012-10-07 09:10:55,23.0,-10.3,33.3,32.4,2.3,112
2012-10-07 09:15:55,23.0,-9.4,32.5,32.4,2.3,112
2012-10-07 09:20:55,23.1,-9.0,32.1,32.4,2.3,112
2012-10-07 09:25:55,23.4,-9.2,32.7,32.4,2.3,112
2012-10-07 09:30:55,23.6,-8.9,32.5,32.4,2.3,112
2012-10-07 09:35:55,23.7,-9.4,33.1,32.4,2.3,112
2012-10-07 09:40:55,23.6,-10.2,33.8,32.4,2.3,112
2012-10-07 09:45:55,23.4,-10.8,34.2,32.4,2.3,112
2012-10-07 09:50:55,23.3,-10.6,33.8,32.4,2.3,111
2012-10-07 09:55:55,23.4,-10.0,33.3,32.4,2.3,113
2012-10-07 10:00:55,23.6,-10.3,33.9,32.4,2.3,112
2012-10-07 10:05:55,23.7,-9.9,33.6,32.4,2.3,111
2012-10-07 10:10:55,23.8,-9.2,33.0,32.4,2.3,112
2012-10-07 10:15:55,24.0,-8.7,32.7,32.5,2.3,112
2012-10-07 10:20:55,24.4,-8.1,32.4,32.5,2.4,112
2012-10-07 10:25:55,24.8,-7.0,31.8,32.5,2.3,112
2012-10-07 10:30:55,25.3,-5.7,31.1,32.5,2.3,111
2012-10-07 10:35:55,26.4,-5.0,31.3,32.5,2.3,112
2012-10-07 10:40:55,27.5,-5.4,32.9,32.5,2.3,111
2012-10-07 10:45:55,28.5,-5.1,33.6,32.5,2.3,111
2012-10-07 10:50:55,29.5,-5.0,34.5,32.5,2.3,112
2012-10-07 10:55:55,29.9,-5.4,35.3,32.5,2.3,111
2012-10-07 11:00:55,30.2,-4.2,34.4,32.6,2.3,112
2012-10-07 11:05:55,29.7,-4.7,34.4,32.6,2.3,111
2012-10-07 11:10:55,29.8,-5.1,34.9,32.6,2.3,112
2012-10-07 11:15:55,29.6,-4.7,34.3,32.6,2.3,112
2012-10-07 11:20:55,30.0,-4.8,34.8,32.6,2.3,112
2012-10-07 11:25:55,30.2,-5.1,35.3,32.6,2.3,111
2012-10-07 11:30:55,30.3,-5.0,35.2,32.6,2.3,112
2012-10-07 11:35:55,30.4,-4.0,34.4,32.6,2.3,111
2012-10-07 11:40:55,31.1,-4.5,35.5,32.6,2.3,112
2012-10-07 11:45:55,31.1,-4.2,35.2,32.6,2.3,112
2012-10-07 11:50:55,31.1,-3.7,34.9,32.6,2.3,112
2012-10-07 11:55:55,31.3,-3.2,34.6,32.6,2.4,111
2012-10-07 12:00:55,31.9,-3.2,35.1,32.6,2.3,112
2012-10-07 12:05:55,32.1,-2.8,34.9,32.6,2.3,112
2012-10-07 12:10:55,31.5,-3.8,35.3,32.6,2.3,111
2012-10-07 12:15:55,30.3,-3.7,34.0,32.6,2.3,112
2012-10-07 12:20:55,30.0,-2.7,32.7,32.6,2.3,111
2012-10-07 12:25:55,30.2,-3.2,33.4,32.6,2.3,112
2012-10-07 12:30:55,30.4,-1.6,32.0,32.6,2.4,112
2012-10-07 12:35:55,31.2,-1.7,32.9,32.6,2.3,112
2012-10-07 12:40:55,31.5,1.2,30.3,32.6,2.4,111
2012-10-07 12:45:55,31.7,0.6,31.1,32.6,2.3,111
2012-10-07 12:50:55,31.2,1.8,29.4,32.6,2.3,111
2012-10-07 12:55:55,30.9,2.1,28.8,32.6,2.3,111
2012-10-07 13:00:55,30.3,2.5,27.8,32.6,2.3,111
2012-10-07 13:05:55,31.5,3.5,28.0,32.6,2.4,112
2012-10-07 13:10:55,32.5,4.0,28.5,32.6,2.4,111
2012-10-07 13:15:55,33.3,2.9,30.4,32.6,2.4,112
2012-10-07 13:20:55,33.0,2.0,31.0,32.6,2.3,111
2012-10-07 13:25:55,32.0,3.0,29.0,32.6,2.3,111
2012-10-07 13:30:55,31.5,5.4,26.2,32.6,2.4,111
2012-10-07 13:35:55,32.9,0.6,32.3,32.6,2.3,112
2012-10-07 13:40:55,31.4,0.8,30.6,32.6,2.3,111
2012-10-07 13:45:55,31.0,3.3,27.6,32.6,2.3,111
2012-10-07 13:50:55,31.6,4.5,27.1,32.6,2.3,112
2012-10-07 13:55:55,32.2,3.6,28.6,32.6,2.3,112
2012-10-07 14:00:55,32.2,2.1,30.1,32.6,2.3,111
2012-10-07 14:05:55,31.6,2.2,29.4,32.6,2.3,111
2012-10-07 14:10:55,30.9,2.4,28.6,32.6,2.3,111
2012-10-07 14:15:55,30.6,2.2,28.4,32.6,2.3,111
2012-10-07 14:20:55,30.5,0.4,30.2,32.6,2.3,112
2012-10-07 14:25:55,30.5,1.6,28.9,32.6,2.3,111
2012-10-07 14:30:55,31.6,4.6,27.1,32.6,2.4,112
2012-10-07 14:35:55,32.5,2.6,29.9,32.6,2.3,111
2012-10-07 14:40:55,32.1,2.5,29.6,32.6,2.3,111
2012-10-07 14:45:55,31.6,4.5,27.1,32.6,2.3,112
2012-10-07 14:50:55,31.4,3.1,28.3,32.6,2.3,111
2012-10-07 14:55:55,31.1,1.4,29.7,32.6,2.3,111
2012-10-07 15:00:55,30.8,3.0,27.9,32.6,2.3,111
2012-10-07 15:05:55,30.5,-0.1,30.6,32.6,2.3,112
2012-10-07 15:10:55,29.5,0.5,28.9,32.6,2.3,111
2012-10-07 15:15:55,28.9,0.9,28.1,32.6,2.3,112
2012-10-07 15:20:55,28.7,1.3,27.4,32.5,2.3,111
2012-10-07 15:25:55,28.6,1.3,27.3,32.5,2.3,111
2012-10-07 15:30:55,28.6,0.3,28.3,32.5,2.3,111
2012-10-07 15:35:55,28.4,0.8,27.5,32.5,2.3,112
2012-10-07 15:40:55,28.6,1.8,26.8,32.6,2.3,111
2012-10-07 15:45:55,29.1,1.3,27.9,32.5,2.3,111
2012-10-07 15:50:55,29.5,1.6,27.9,32.6,2.3,112
2012-10-07 15:55:55,30.0,0.3,29.7,32.6,2.3,111
2012-10-07 16:00:55,30.1,0.0,30.1,32.6,2.3,112
2012-10-07 16:05:55,29.3,-0.7,30.0,32.6,2.3,111
2012-10-07 16:10:55,29.5,-3.8,33.3,32.5,2.3,112
2012-10-07 16:15:55,28.5,-4.7,33.2,32.5,2.3,111
2012-10-07 16:20:55,27.4,-3.4,30.8,32.5,2.3,112
2012-10-07 16:25:55,26.9,-1.1,28.1,32.5,2.3,112
2012-10-07 16:30:55,26.8,0.3,26.5,32.5,2.5,111
2012-10-07 16:35:55,26.8,0.5,26.4,32.5,2.4,111
2012-10-07 16:40:55,26.8,-0.3,27.1,32.5,2.3,112
2012-10-07 16:45:55,26.7,-0.6,27.3,32.5,2.3,112
2012-10-07 16:50:55,26.6,-0.1,26.7,32.5,2.3,112
2012-10-07 16:55:55,26.6,-0.2,26.8,32.4,2.3,112
2012-10-07 17:00:55,26.6,-0.5,27.1,32.5,2.3,112
2012-10-07 17:05:55,26.7,-1.0,27.7,32.5,2.3,112
2012-10-07 17:10:55,26.6,-0.9,27.5,32.4,2.3,111
2012-10-07 17:15:55,26.5,-2.2,28.7,32.4,2.3,112
2012-10-07 17:20:55,26.3,-2.3,28.6,32.3,2.3,112
2012-10-07 17:25:55,26.1,-1.7,27.8,32.3,2.3,112
2012-10-07 17:30:55,25.8,-0.3,26.1,32.2,2.3,111
2012-10-07 17:35:55,25.6,0.3,25.3,32.2,2.3,111
2012-10-07 17:40:55,25.4,1.0,24.5,32.0,2.3,112
2012-10-07 17:45:55,25.3,1.6,23.8,31.8,2.3,111
2012-10-07 17:50:55,25.1,1.6,23.5,31.5,2.3,111
2012-10-07 17:55:55,24.9,2.1,22.8,31.4,2.3,111
2012-10-07 18:00:55,24.8,2.3,22.5,31.4,2.3,111
2012-10-07 18:05:55,24.8,2.1,22.8,31.4,2.3,111
2012-10-07 18:10:55,24.8,2.4,22.4,31.5,2.3,112
2012-10-07 18:15:55,24.8,2.2,22.6,31.7,2.3,111
2012-10-07 18:20:55,24.7,1.5,23.2,31.6,2.3,111
2012-10-07 18:25:55,24.6,1.4,23.2,31.1,2.3,111
2012-10-07 18:30:55,24.5,1.4,23.0,30.0,2.3,111
2012-10-07 18:35:55,24.3,2.1,22.2,28.1,2.2,111
2012-10-07 18:40:55,24.4,2.3,22.1,26.0,2.2,111
2012-10-07 18:45:55,24.4,2.3,22.1,22.3,2.3,112
2012-10-07 18:50:55,24.3,2.2,22.0,17.3,2.3,111
2012-10-07 18:55:55,24.2,1.9,22.3,11.5,2.3,111
2012-10-07 19:00:55,24.1,1.8,22.3,6.3,2.3,111
2012-10-07 19:05:55,24.1,2.0,22.1,3.2,2.3,111
2012-10-07 19:10:55,24.1,1.9,22.1,1.5,2.3,112
2012-10-07 19:15:55,24.1,2.2,21.9,0.8,2.3,111
2012-10-07 19:20:55,24.1,2.2,21.9,0.4,2.3,111
2012-10-07 19:25:55,24.1,2.2,21.9,0.2,2.3,111
2012-10-07 19:30:55,24.1,2.0,22.1,0.1,2.3,111
2012-10-07 19:35:55,24.0,2.2,21.8,0.1,2.3,111
2012-10-07 19:40:55,24.0,1.5,22.5,0.1,2.3,112
2012-10-07 19:45:55,24.0,0.5,23.5,0.0,2.3,111
2012-10-07 19:50:56,24.0,0.8,23.2,0.0,2.3,111
2012-10-07 19:55:56,24.0,1.1,22.9,0.0,2.4,111
2012-10-07 20:00:56,23.9,1.6,22.4,0.1,2.6,111
2012-10-07 20:05:56,23.9,2.3,21.6,0.1,2.6,111
2012-10-07 20:10:56,23.7,2.5,21.3,0.1,2.5,111
2012-10-07 20:15:56,23.7,2.2,21.5,0.1,2.4,111
2012-10-07 20:20:56,23.7,0.2,23.5,0.0,2.3,112
2012-10-07 20:25:56,23.7,-2.9,26.5,0.0,2.3,112
2012-10-07 20:30:56,23.6,-2.7,26.3,0.0,2.3,111
2012-10-07 20:35:56,23.5,-1.3,24.9,0.0,2.3,112
2012-10-07 20:40:56,23.5,-0.2,23.7,0.0,2.3,112
2012-10-07 20:45:56,23.5,1.6,21.9,0.0,2.3,111
2012-10-07 20:50:56,23.5,1.7,21.8,0.0,2.3,112
2012-10-07 20:55:56,23.6,1.0,22.6,0.0,2.3,111
2012-10-07 21:00:56,23.6,0.5,23.1,0.0,2.3,112
2012-10-07 21:05:56,23.6,-0.2,23.8,0.0,2.3,111
2012-10-07 21:10:56,23.6,1.5,22.0,0.0,2.3,112
2012-10-07 21:15:56,23.5,2.2,21.3,0.1,2.3,111
2012-10-07 21:20:56,23.6,2.4,21.1,0.1,2.3,111
2012-10-07 21:25:56,23.6,2.8,20.7,0.1,2.3,111
2012-10-07 21:30:56,21.6,3.5,18.0,0.1,2.3,111
2012-10-07 21:35:56,19.4,3.2,16.2,0.1,2.5,112
2012-10-07 21:40:56,18.7,2.7,16.0,0.1,2.3,111
2012-10-07 21:45:56,18.5,1.4,17.0,0.0,2.1,111
2012-10-07 21:50:56,18.6,1.3,17.3,0.0,1.9,111
2012-10-07 21:55:56,18.2,1.4,16.8,0.0,1.8,111
2012-10-07 22:00:56,18.1,1.7,16.4,0.0,1.8,111
2012-10-07 22:05:56,18.1,2.0,16.0,0.1,1.8,111
2012-10-07 22:10:56,18.0,2.4,15.7,0.1,1.8,111
2012-10-07 22:15:56,18.0,2.6,15.4,0.1,1.8,112
2012-10-07 22:20:56,18.0,2.5,15.5,0.1,2.0,111
2012-10-07 22:25:56,18.0,2.9,15.1,0.1,2.2,111
2012-10-07 22:30:56,18.0,3.1,14.9,0.0,2.2,111
2012-10-07 22:35:56,18.0,3.4,14.6,0.0,2.2,111
2012-10-07 22:40:56,18.0,2.2,15.9,0.0,2.2,111
2012-10-07 22:45:56,18.0,2.5,15.5,0.0,2.2,112
2012-10-07 22:50:56,18.0,3.6,14.4,0.0,2.3,111
2012-10-07 22:55:56,18.1,3.7,14.4,0.0,2.2,111
2012-10-07 23:00:56,18.1,3.9,14.2,0.0,2.2,112
2012-10-07 23:05:56,18.1,3.6,14.5,0.0,2.1,111
2012-10-07 23:10:56,18.2,2.9,15.3,0.0,1.9,112
2012-10-07 23:15:56,18.2,2.4,15.8,0.0,2.0,111
2012-10-07 23:20:56,18.1,1.2,17.0,0.0,2.0,111
2012-10-07 23:25:56,18.1,2.7,15.4,0.0,2.1,111
2012-10-07 23:30:56,18.1,3.8,14.3,0.0,2.1,112
2012-10-07 23:35:56,18.2,4.3,13.9,0.0,2.0,112
2012-10-07 23:40:56,18.3,4.4,13.9,0.0,1.8,111
2012-10-07 23:45:56,18.4,4.8,13.6,0.0,1.8,112
2012-10-07 23:50:56,18.4,4.9,13.5,0.0,1.8,112
2012-10-07 23:55:56,18.4,3.6,14.8,0.0,1.8,111
